• în Republica Moldova
  • Lista ţărilor
  • Pe 7 zile
  • Temperatura apei
  • Hartă satelitară
  • Meteo pe hartă
  • Widget-uri
  • user-avatar
    Intrare

    Meteo pe oră la Molepolole

    Astăzi, 23 Ianuarie, Miercuri

    Timp Temperatura Precipitaţii Vânt Presiune Umiditate
    00:00 +27°C° 0 mm 1 m/s 663 mmHg 27%
    01:00 +26°C° 0 mm 1 m/s 663 mmHg 28%
    02:00 +26°C° 0 mm 1 m/s 663 mmHg 29%
    03:00 +25°C° 0 mm 1 m/s 663 mmHg 29%
    04:00 +25°C° 0 mm 1 m/s 663 mmHg 30%
    05:00 +24°C° 0 mm 2 m/s 663 mmHg 31%
    06:00 +26°C° 0 mm 1 m/s 663 mmHg 29%
    07:00 +27°C° 0 mm 1 m/s 664 mmHg 28%
    08:00 +29°C° 0 mm 1 m/s 665 mmHg 26%
    09:00 +31°C° 0 mm 1 m/s 665 mmHg 24%
    10:00 +31°C° 0 mm 0 m/s 665 mmHg 21%
    11:00 +33°C° 0 mm 0 m/s 665 mmHg 18%
    12:00 +36°C° 0 mm 1 m/s 665 mmHg 17%
    13:00 +37°C° 0 mm 1 m/s 665 mmHg 16%
    14:00 +39°C° 0 mm 2 m/s 664 mmHg 14%
    15:00 +38°C° 0 mm 2 m/s 664 mmHg 15%
    16:00 +37°C° 0 mm 1 m/s 663 mmHg 16%
    17:00 +36°C° 0 mm 1 m/s 662 mmHg 17%
    18:00 +35°C° 0 mm 1 m/s 662 mmHg 19%
    19:00 +34°C° 0 mm 1 m/s 662 mmHg 20%
    20:00 +32°C° 0 mm 1 m/s 662 mmHg 21%
    21:00 +32°C° 0 mm 1 m/s 662 mmHg 22%
    22:00 +31°C° 0 mm 1 m/s 662 mmHg 22%
    23:00 +31°C° 0 mm 1 m/s 662 mmHg 23%

    Mâine, 24 Ianuarie, Joi

    Timp Temperatura Precipitaţii Vânt Presiune Umiditate
    00:00 +31°C° 0 mm 2 m/s 662 mmHg 22%
    01:00 +31°C° 0 mm 2 m/s 662 mmHg 22%
    02:00 +31°C° 0 mm 3 m/s 662 mmHg 22%
    03:00 +30°C° 0 mm 2 m/s 662 mmHg 23%
    04:00 +29°C° 0 mm 2 m/s 662 mmHg 24%
    05:00 +29°C° 0 mm 2 m/s 662 mmHg 26%
    06:00 +29°C° 0 mm 2 m/s 662 mmHg 26%
    07:00 +30°C° 0 mm 3 m/s 663 mmHg 26%
    08:00 +31°C° 0 mm 3 m/s 664 mmHg 26%
    09:00 +33°C° 0 mm 3 m/s 664 mmHg 23%
    10:00 +35°C° 0 mm 3 m/s 664 mmHg 21%
    11:00 +37°C° 0 mm 3 m/s 665 mmHg 18%
    12:00 +38°C° 0 mm 3 m/s 664 mmHg 17%
    13:00 +39°C° 0 mm 3 m/s 664 mmHg 16%
    14:00 +39°C° 0 mm 3 m/s 664 mmHg 15%
    15:00 +39°C° 0 mm 3 m/s 663 mmHg 15%
    16:00 +39°C° 0 mm 3 m/s 663 mmHg 15%
    17:00 +39°C° 0 mm 3 m/s 662 mmHg 15%
    18:00 +38°C° 0 mm 2 m/s 662 mmHg 17%
    19:00 +36°C° 0 mm 2 m/s 662 mmHg 19%
    20:00 +35°C° 0 mm 2 m/s 662 mmHg 21%
    21:00 +34°C° 0 mm 4 m/s 662 mmHg 23%
    22:00 +33°C° 0 mm 5 m/s 663 mmHg 25%
    23:00 +32°C° 0 mm 6 m/s 663 mmHg 28%

    Poimâine, 25 Ianuarie, Vineri

    Timp Temperatura Precipitaţii Vânt Presiune Umiditate
    00:00 +30°C° 0 mm 6 m/s 663 mmHg 31%
    01:00 +29°C° 0 mm 5 m/s 662 mmHg 35%
    02:00 +29°C° 0 mm 5 m/s 662 mmHg 38%
    03:00 +28°C° 0 mm 5 m/s 662 mmHg 37%
    04:00 +28°C° 0 mm 5 m/s 663 mmHg 36%
    05:00 +28°C° 0 mm 5 m/s 663 mmHg 34%
    06:00 +28°C° 0 mm 5 m/s 664 mmHg 38%
    07:00 +27°C° 0 mm 5 m/s 664 mmHg 42%
    08:00 +27°C° 0 mm 5 m/s 665 mmHg 46%
    09:00 +29°C° 0 mm 6 m/s 665 mmHg 42%
    10:00 +32°C° 0 mm 6 m/s 665 mmHg 39%
    11:00 +34°C° 0 mm 7 m/s 666 mmHg 35%
    12:00 +35°C° 0 mm 6 m/s 665 mmHg 31%
    13:00 +38°C° 0 mm 6 m/s 665 mmHg 27%
    14:00 +39°C° 0 mm 5 m/s 665 mmHg 22%
    15:00 +39°C° 0 mm 5 m/s 664 mmHg 21%
    16:00 +40°C° 0 mm 5 m/s 663 mmHg 20%
    17:00 +40°C° 0 mm 5 m/s 663 mmHg 18%
    18:00 +35°C° 1.5 mm 5 m/s 662 mmHg 31%
    19:00 +30°C° 1.5 mm 6 m/s 662 mmHg 43%
    20:00 +27°C° 1.5 mm 6 m/s 661 mmHg 56%
    21:00 +27°C° 0.5 mm 6 m/s 662 mmHg 53%
    22:00 +28°C° 0.5 mm 5 m/s 663 mmHg 50%
    23:00 +28°C° 0.5 mm 5 m/s 664 mmHg 46%

    26 Ianuarie, Sâmbătă

    Timp Temperatura Precipitaţii Vânt Presiune Umiditate
    00:00 +27°C° 0 mm 5 m/s 663 mmHg 51%
    01:00 +27°C° 0 mm 5 m/s 663 mmHg 55%
    02:00 +26°C° 0 mm 5 m/s 662 mmHg 60%
    03:00 +26°C° 0 mm 5 m/s 663 mmHg 61%
    04:00 +25°C° 0 mm 4 m/s 663 mmHg 62%
    05:00 +25°C° 0 mm 4 m/s 663 mmHg 64%
    06:00 +25°C° 0 mm 4 m/s 663 mmHg 61%
    07:00 +26°C° 0 mm 4 m/s 664 mmHg 58%
    08:00 +27°C° 0 mm 4 m/s 665 mmHg 56%
    09:00 +28°C° 0 mm 5 m/s 665 mmHg 50%
    10:00 +30°C° 0 mm 6 m/s 665 mmHg 44%
    11:00 +33°C° 0 mm 6 m/s 666 mmHg 39%
    12:00 +35°C° 0 mm 6 m/s 665 mmHg 34%
    13:00 +36°C° 0 mm 5 m/s 665 mmHg 29%
    14:00 +39°C° 0 mm 5 m/s 664 mmHg 24%
    15:00 +39°C° 0 mm 5 m/s 664 mmHg 23%
    16:00 +39°C° 0 mm 5 m/s 663 mmHg 23%
    17:00 +37°C° 0 mm 5 m/s 663 mmHg 23%
    18:00 +36°C° 0 mm 5 m/s 663 mmHg 26%
    19:00 +34°C° 0 mm 4 m/s 663 mmHg 29%
    20:00 +32°C° 0 mm 4 m/s 663 mmHg 32%
    21:00 +30°C° 0.3 mm 4 m/s 663 mmHg 37%
    22:00 +29°C° 0.3 mm 4 m/s 663 mmHg 42%
    23:00 +27°C° 0.3 mm 4 m/s 663 mmHg 47%

    27 Ianuarie, Duminică

    Timp Temperatura Precipitaţii Vânt Presiune Umiditate
    00:00 +26°C° 0.1 mm 4 m/s 662 mmHg 52%
    01:00 +26°C° 0.1 mm 4 m/s 662 mmHg 57%
    02:00 +25°C° 0.1 mm 4 m/s 662 mmHg 63%
    03:00 +25°C° 0 mm 4 m/s 662 mmHg 65%
    04:00 +24°C° 0 mm 3 m/s 662 mmHg 67%
    05:00 +24°C° 0 mm 3 m/s 663 mmHg 68%
    06:00 +23°C° 0 mm 4 m/s 663 mmHg 68%
    07:00 +25°C° 0 mm 5 m/s 664 mmHg 68%
    08:00 +24°C° 0 mm 7 m/s 664 mmHg 67%
    09:00 +27°C° 0 mm 6 m/s 665 mmHg 60%
    10:00 +29°C° 0 mm 6 m/s 665 mmHg 53%
    11:00 +32°C° 0 mm 5 m/s 665 mmHg 46%
    12:00 +34°C° 0 mm 5 m/s 665 mmHg 39%
    13:00 +35°C° 0 mm 4 m/s 664 mmHg 33%
    14:00 +37°C° 0 mm 3 m/s 664 mmHg 26%
    15:00 +37°C° 0 mm 2 m/s 664 mmHg 27%
    16:00 +36°C° 0 mm 2 m/s 663 mmHg 27%
    17:00 +36°C° 0 mm 2 m/s 663 mmHg 27%
    18:00 +34°C° 0 mm 3 m/s 662 mmHg 37%
    19:00 +32°C° 0 mm 5 m/s 662 mmHg 46%
    20:00 +29°C° 0 mm 6 m/s 662 mmHg 55%
    21:00 +28°C° 0 mm 7 m/s 662 mmHg 60%
    22:00 +26°C° 0 mm 7 m/s 663 mmHg 65%
    23:00 +24°C° 0 mm 8 m/s 663 mmHg 70%

    28 Ianuarie, Luni

    Timp Temperatura Precipitaţii Vânt Presiune Umiditate
    00:00 +24°C° 0 mm 8 m/s 663 mmHg 71%
    01:00 +24°C° 0 mm 7 m/s 663 mmHg 71%
    02:00 +23°C° 0 mm 6 m/s 663 mmHg 71%
    03:00 +23°C° 0.1 mm 7 m/s 664 mmHg 73%
    04:00 +22°C° 0.1 mm 7 m/s 664 mmHg 76%
    05:00 +22°C° 0.1 mm 7 m/s 664 mmHg 78%
    06:00 +22°C° 0 mm 7 m/s 665 mmHg 76%
    07:00 +22°C° 0 mm 7 m/s 665 mmHg 75%
    08:00 +22°C° 0 mm 7 m/s 666 mmHg 73%
    09:00 +23°C° 0 mm 7 m/s 666 mmHg 70%
    10:00 +23°C° 0 mm 6 m/s 666 mmHg 67%
    11:00 +24°C° 0 mm 6 m/s 666 mmHg 64%
    12:00 +27°C° 0 mm 6 m/s 666 mmHg 59%
    13:00 +28°C° 0 mm 5 m/s 666 mmHg 54%
    14:00 +30°C° 0 mm 5 m/s 665 mmHg 49%
    15:00 +30°C° 0 mm 4 m/s 665 mmHg 48%
    16:00 +30°C° 0 mm 4 m/s 664 mmHg 48%
    17:00 +30°C° 0 mm 4 m/s 664 mmHg 47%
    18:00 +29°C° 0 mm 4 m/s 664 mmHg 50%
    19:00 +28°C° 0 mm 4 m/s 664 mmHg 53%
    20:00 +27°C° 0 mm 4 m/s 664 mmHg 56%
    21:00 +26°C° 0.2 mm 5 m/s 664 mmHg 59%
    22:00 +26°C° 0.2 mm 5 m/s 665 mmHg 62%
    23:00 +25°C° 0.2 mm 5 m/s 665 mmHg 65%
    Arată mai mult